Powrót do katalogu

EUTE 16C

SESAT 1

AktywnyŁącznośćGEO
NORAD 26243·PAYLOAD·🇪🇺 EU

Wystrzelony Apr 17, 2000 z Baikonur Cosmodrome

Loading…

TLE

ŚwieżeSource: Space-Track

Epoka: Sep 14, 2026, 13:21 UTC

1 26243U 00019A   26257.55638767  .00000002  00000-0  00000-0 0  9998
2 26243  11.0680  45.2202 0005559 158.6101 203.8200  0.98954699 96230

Śledź EUTE 16C w czasie rzeczywistym z AllMySat

Download on the App Store